This is the latest recevied weather packets stored in our database for station/object KC9Q. If no packets are shown the sender has not sent any weather packets the latest 10 day(s).
| Time | Temp. | Humidity | Pressure | Rain* | Wind** | Luminosity | Snow |
|---|---|---|---|---|---|---|---|
| 1778006379 | 17.78° C | 95% | 1006.7 hPa | 0 mm | - | 207 W/m² | - |
| 1778006077 | 17.78° C | 97% | 1006.6 hPa | 0 mm | - | 314 W/m² | - |
| 1778005773 | 17.78° C | 97% | 1006.2 hPa | 0 mm | - | 331 W/m² | - |
| 1778005471 | 17.22° C | 97% | 1006.5 hPa | 0 mm | - | 129 W/m² | - |
| 1778005166 | 17.22° C | 97% | 1006.8 hPa | 0 mm | - | 114 W/m² | - |
| 1778004864 | 17.22° C | 97% | 1006.7 hPa | 0 mm | - | 163 W/m² | - |
| 1778004561 | 17.22° C | 97% | 1006.6 hPa | 0 mm | - | 160 W/m² | - |
| 1778004257 | 17.22° C | 98% | 1006.8 hPa | 0 mm | - | 149 W/m² | - |
| 1778003954 | 17.22° C | 98% | 1007.4 hPa | 0 mm | - | 148 W/m² | - |
| 1778003650 | 17.22° C | 98% | 1007 hPa | 0 mm | - | 141 W/m² | - |
| 1778003346 | 16.67° C | 98% | 1007.2 hPa | 0 mm | - | 140 W/m² | - |
| 1778003044 | 16.67° C | 98% | 1007.2 hPa | 1.78 mm | - | 104 W/m² | - |
| 1778002740 | 16.67° C | 97% | 1007.3 hPa | 1.78 mm | - | 124 W/m² | - |
| 1778002437 | 16.67° C | 97% | 1007.6 hPa | 0 mm | - | 118 W/m² | - |
| 1778002134 | 16.67° C | 97% | 1007.6 hPa | 0 mm | - | 82 W/m² | - |
| 1778001832 | 16.67° C | 97% | 1007.8 hPa | 0 mm | - | 60 W/m² | - |
| 1778001531 | 16.67° C | 97% | 1007.6 hPa | 0 mm | - | 94 W/m² | - |
| 1778001228 | 16.67° C | 95% | 1007.6 hPa | 0 mm | - | 106 W/m² | - |
| 1778000924 | 16.67° C | 95% | 1007.7 hPa | 0 mm | - | 117 W/m² | - |
| 1778000622 | 16.67° C | 95% | 1007.9 hPa | 0 mm | - | 149 W/m² | - |
| 1778000317 | 16.67° C | 95% | 1008.1 hPa | 0 mm | - | 153 W/m² | - |
| 1778000013 | 16.67° C | 96% | 1008 hPa | 0 mm | - | 119 W/m² | - |
| 1777999708 | 16.67° C | 96% | 1007.9 hPa | 0 mm | - | 102 W/m² | - |
| 1777999405 | 16.67° C | 96% | 1008.1 hPa | 0 mm | - | 88 W/m² | - |
| 1777999104 | 16.11° C | 96% | 1008.3 hPa | 0 mm | - | 106 W/m² | - |
* Rain latest hour (hover to see other rain measurements)
** Current wind speed in m/s (hover to see current wind gust speed)